owner,sensor,date,latitude,longitude,vertical_datum,sea_water_temperature,qcFlag 
DISL,ioos:station:DISL:DISL:1,2015-10-01T00:00:00Z,30.2513,-88.0778,-1.72,26.71,2 
DISL,ioos:station:DISL:DISL:1,2015-10-01T00:30:00Z,30.2513,-88.0778,-1.72,26.87,2 
DISL,ioos:station:DISL:DISL:1,2015-10-01T01:00:00Z,30.2513,-88.0778,-1.72,26.64,2 
DISL,ioos:station:DISL:DISL:1,2015-10-01T01:30:00Z,30.2513,-88.0778,-1.72,26.14,2 
DISL,ioos:station:DISL:DISL:1,2015-10-01T02:00:00Z,30.2513,-88.0778,-1.72,25.95,2 
DISL,ioos:station:DISL:DISL:1,2015-10-01T02:30:00Z,30.2513,-88.0778,-1.72,26.45,2 
DISL,ioos:station:DISL:DISL:1,2015-10-01T03:00:00Z,30.2513,-88.0778,-1.72,26.5,2 
DISL,ioos:station:DISL:DISL:1,2015-10-01T03:30:00Z,30.2513,-88.0778,-1.72,26.62,2 
DISL,ioos:station:DISL:DISL:1,2015-10-01T04:00:00Z,30.2513,-88.0778,-1.72,26.56,2 
DISL,ioos:station:DISL:DISL:1,2015-10-01T04:30:00Z,30.2513,-88.0778,-1.72,26.36,2 
DISL,ioos:station:DISL:DISL:1,2015-10-01T05:00:00Z,30.2513,-88.0778,-1.72,26.29,2 
DISL,ioos:station:DISL:DISL:1,2015-10-01T05:30:00Z,30.2513,-88.0778,-1.72,26.07,2 
DISL,ioos:station:DISL:DISL:1,2015-10-01T06:00:00Z,30.2513,-88.0778,-1.72,25.87,2 
DISL,ioos:station:DISL:DISL:1,2015-10-01T06:30:00Z,30.2513,-88.0778,-1.72,25.7,2 
DISL,ioos:station:DISL:DISL:1,2015-10-01T07:00:00Z,30.2513,-88.0778,-1.72,25.56,2 
DISL,ioos:station:DISL:DISL:1,2015-10-01T07:30:00Z,30.2513,-88.0778,-1.72,25.41,2 
DISL,ioos:station:DISL:DISL:1,2015-10-01T08:00:00Z,30.2513,-88.0778,-1.72,25.26,2 
DISL,ioos:station:DISL:DISL:1,2015-10-01T08:30:00Z,30.2513,-88.0778,-1.72,25.14,2 
DISL,ioos:station:DISL:DISL:1,2015-10-01T09:00:00Z,30.2513,-88.0778,-1.72,25.0,2 
DISL,ioos:station:DISL:DISL:1,2015-10-01T09:30:00Z,30.2513,-88.0778,-1.72,24.92,2 
DISL,ioos:station:DISL:DISL:1,2015-10-01T10:00:00Z,30.2513,-88.0778,-1.72,24.75,2 
DISL,ioos:station:DISL:DISL:1,2015-10-01T10:30:00Z,30.2513,-88.0778,-1.72,24.58,2 
DISL,ioos:station:DISL:DISL:1,2015-10-01T11:00:00Z,30.2513,-88.0778,-1.72,24.5,2 
DISL,ioos:station:DISL:DISL:1,2015-10-01T11:30:00Z,30.2513,-88.0778,-1.72,24.42,2 
DISL,ioos:station:DISL:DISL:1,2015-10-01T12:00:00Z,30.2513,-88.0778,-1.72,24.27,2 
DISL,ioos:station:DISL:DISL:1,2015-10-01T12:30:00Z,30.2513,-88.0778,-1.72,24.16,2 
DISL,ioos:station:DISL:DISL:1,2015-10-01T13:00:00Z,30.2513,-88.0778,-1.72,24.18,2 
DISL,ioos:station:DISL:DISL:1,2015-10-01T13:30:00Z,30.2513,-88.0778,-1.72,24.12,2 
DISL,ioos:station:DISL:DISL:1,2015-10-01T14:00:00Z,30.2513,-88.0778,-1.72,24.07,2 
DISL,ioos:station:DISL:DISL:1,2015-10-01T14:30:00Z,30.2513,-88.0778,-1.72,24.06,2 
DISL,ioos:station:DISL:DISL:1,2015-10-01T15:00:00Z,30.2513,-88.0778,-1.72,24.09,2 
DISL,ioos:station:DISL:DISL:1,2015-10-01T15:30:00Z,30.2513,-88.0778,-1.72,24.05,2 
DISL,ioos:station:DISL:DISL:1,2015-10-01T16:00:00Z,30.2513,-88.0778,-1.72,24.08,2 
DISL,ioos:station:DISL:DISL:1,2015-10-01T16:30:00Z,30.2513,-88.0778,-1.72,24.02,2 
DISL,ioos:station:DISL:DISL:1,2015-10-01T17:00:00Z,30.2513,-88.0778,-1.72,24.47,2 
DISL,ioos:station:DISL:DISL:1,2015-10-01T17:30:00Z,30.2513,-88.0778,-1.72,24.53,2 
DISL,ioos:station:DISL:DISL:1,2015-10-01T18:00:00Z,30.2513,-88.0778,-1.72,24.48,2 
DISL,ioos:station:DISL:DISL:1,2015-10-01T18:30:00Z,30.2513,-88.0778,-1.72,24.51,2 
DISL,ioos:station:DISL:DISL:1,2015-10-01T19:00:00Z,30.2513,-88.0778,-1.72,24.41,2 
DISL,ioos:station:DISL:DISL:1,2015-10-01T19:30:00Z,30.2513,-88.0778,-1.72,24.43,2 
DISL,ioos:station:DISL:DISL:1,2015-10-01T20:00:00Z,30.2513,-88.0778,-1.72,24.42,2 
DISL,ioos:station:DISL:DISL:1,2015-10-01T20:30:00Z,30.2513,-88.0778,-1.72,24.41,2 
DISL,ioos:station:DISL:DISL:1,2015-10-01T21:00:00Z,30.2513,-88.0778,-1.72,24.56,2 
DISL,ioos:station:DISL:DISL:1,2015-10-01T21:30:00Z,30.2513,-88.0778,-1.72,24.51,2 
DISL,ioos:station:DISL:DISL:1,2015-10-01T22:00:00Z,30.2513,-88.0778,-1.72,24.63,2 
DISL,ioos:station:DISL:DISL:1,2015-10-01T22:30:00Z,30.2513,-88.0778,-1.72,24.42,2 
DISL,ioos:station:DISL:DISL:1,2015-10-01T23:00:00Z,30.2513,-88.0778,-1.72,24.31,2 
DISL,ioos:station:DISL:DISL:1,2015-10-01T23:30:00Z,30.2513,-88.0778,-1.72,24.16,2 
DISL,ioos:station:DISL:DISL:1,2015-10-02T00:00:00Z,30.2513,-88.0778,-1.72,23.6,2 
DISL,ioos:station:DISL:DISL:1,2015-10-02T00:30:00Z,30.2513,-88.0778,-1.72,23.48,2 
DISL,ioos:station:DISL:DISL:1,2015-10-02T01:00:00Z,30.2513,-88.0778,-1.72,23.49,2 
DISL,ioos:station:DISL:DISL:1,2015-10-02T01:30:00Z,30.2513,-88.0778,-1.72,23.92,2 
DISL,ioos:station:DISL:DISL:1,2015-10-02T02:00:00Z,30.2513,-88.0778,-1.72,23.95,2 
DISL,ioos:station:DISL:DISL:1,2015-10-02T02:30:00Z,30.2513,-88.0778,-1.72,23.81,2 
DISL,ioos:station:DISL:DISL:1,2015-10-02T03:00:00Z,30.2513,-88.0778,-1.72,23.85,2 
DISL,ioos:station:DISL:DISL:1,2015-10-02T03:30:00Z,30.2513,-88.0778,-1.72,23.62,2 
DISL,ioos:station:DISL:DISL:1,2015-10-02T04:00:00Z,30.2513,-88.0778,-1.72,23.37,2 
DISL,ioos:station:DISL:DISL:1,2015-10-02T04:30:00Z,30.2513,-88.0778,-1.72,23.28,2 
DISL,ioos:station:DISL:DISL:1,2015-10-02T05:00:00Z,30.2513,-88.0778,-1.72,23.06,2 
DISL,ioos:station:DISL:DISL:1,2015-10-02T05:30:00Z,30.2513,-88.0778,-1.72,22.62,2 
DISL,ioos:station:DISL:DISL:1,2015-10-02T06:00:00Z,30.2513,-88.0778,-1.72,22.32,2 
DISL,ioos:station:DISL:DISL:1,2015-10-02T06:30:00Z,30.2513,-88.0778,-1.72,22.27,2 
DISL,ioos:station:DISL:DISL:1,2015-10-02T07:00:00Z,30.2513,-88.0778,-1.72,22.27,2 
DISL,ioos:station:DISL:DISL:1,2015-10-02T07:30:00Z,30.2513,-88.0778,-1.72,22.23,2 
DISL,ioos:station:DISL:DISL:1,2015-10-02T08:00:00Z,30.2513,-88.0778,-1.72,22.17,2 
DISL,ioos:station:DISL:DISL:1,2015-10-02T08:30:00Z,30.2513,-88.0778,-1.72,22.12,2 
DISL,ioos:station:DISL:DISL:1,2015-10-02T09:00:00Z,30.2513,-88.0778,-1.72,22.04,2 
DISL,ioos:station:DISL:DISL:1,2015-10-02T09:30:00Z,30.2513,-88.0778,-1.72,21.95,2 
DISL,ioos:station:DISL:DISL:1,2015-10-02T10:00:00Z,30.2513,-88.0778,-1.72,21.87,2 
DISL,ioos:station:DISL:DISL:1,2015-10-02T10:30:00Z,30.2513,-88.0778,-1.72,21.83,2 
DISL,ioos:station:DISL:DISL:1,2015-10-02T11:00:00Z,30.2513,-88.0778,-1.72,21.75,2 
DISL,ioos:station:DISL:DISL:1,2015-10-02T11:30:00Z,30.2513,-88.0778,-1.72,21.71,2 
DISL,ioos:station:DISL:DISL:1,2015-10-02T12:00:00Z,30.2513,-88.0778,-1.72,21.61,2 
DISL,ioos:station:DISL:DISL:1,2015-10-02T12:30:00Z,30.2513,-88.0778,-1.72,21.55,2 
DISL,ioos:station:DISL:DISL:1,2015-10-02T13:00:00Z,30.2513,-88.0778,-1.72,21.18,2 
DISL,ioos:station:DISL:DISL:1,2015-10-02T13:30:00Z,30.2513,-88.0778,-1.72,21.28,2 
DISL,ioos:station:DISL:DISL:1,2015-10-02T14:00:00Z,30.2513,-88.0778,-1.72,21.69,2 
DISL,ioos:station:DISL:DISL:1,2015-10-02T14:30:00Z,30.2513,-88.0778,-1.72,21.75,2 
DISL,ioos:station:DISL:DISL:1,2015-10-02T15:00:00Z,30.2513,-88.0778,-1.72,21.8,2 
DISL,ioos:station:DISL:DISL:1,2015-10-02T15:30:00Z,30.2513,-88.0778,-1.72,21.83,2 
DISL,ioos:station:DISL:DISL:1,2015-10-02T16:00:00Z,30.2513,-88.0778,-1.72,21.9,2 
DISL,ioos:station:DISL:DISL:1,2015-10-02T16:30:00Z,30.2513,-88.0778,-1.72,21.99,2 
DISL,ioos:station:DISL:DISL:1,2015-10-02T17:00:00Z,30.2513,-88.0778,-1.72,21.92,2 
DISL,ioos:station:DISL:DISL:1,2015-10-02T17:30:00Z,30.2513,-88.0778,-1.72,21.9,2 
DISL,ioos:station:DISL:DISL:1,2015-10-02T18:00:00Z,30.2513,-88.0778,-1.72,21.69,2 
DISL,ioos:station:DISL:DISL:1,2015-10-02T18:30:00Z,30.2513,-88.0778,-1.72,21.61,2 
DISL,ioos:station:DISL:DISL:1,2015-10-02T19:00:00Z,30.2513,-88.0778,-1.72,21.69,2 
DISL,ioos:station:DISL:DISL:1,2015-10-02T19:30:00Z,30.2513,-88.0778,-1.72,21.87,2 
DISL,ioos:station:DISL:DISL:1,2015-10-02T20:00:00Z,30.2513,-88.0778,-1.72,22.83,2 
DISL,ioos:station:DISL:DISL:1,2015-10-02T20:30:00Z,30.2513,-88.0778,-1.72,22.61,2 
DISL,ioos:station:DISL:DISL:1,2015-10-02T21:00:00Z,30.2513,-88.0778,-1.72,23.53,2 
DISL,ioos:station:DISL:DISL:1,2015-10-02T21:30:00Z,30.2513,-88.0778,-1.72,23.88,2 
DISL,ioos:station:DISL:DISL:1,2015-10-02T22:00:00Z,30.2513,-88.0778,-1.72,22.91,2 
DISL,ioos:station:DISL:DISL:1,2015-10-02T22:30:00Z,30.2513,-88.0778,-1.72,22.65,2 
DISL,ioos:station:DISL:DISL:1,2015-10-02T23:00:00Z,30.2513,-88.0778,-1.72,22.57,2 
DISL,ioos:station:DISL:DISL:1,2015-10-02T23:30:00Z,30.2513,-88.0778,-1.72,22.43,2 
DISL,ioos:station:DISL:DISL:1,2015-10-03T00:00:00Z,30.2513,-88.0778,-1.72,22.24,2 
DISL,ioos:station:DISL:DISL:1,2015-10-03T00:30:00Z,30.2513,-88.0778,-1.72,23.33,2 
DISL,ioos:station:DISL:DISL:1,2015-10-03T01:00:00Z,30.2513,-88.0778,-1.72,22.77,2 
DISL,ioos:station:DISL:DISL:1,2015-10-03T01:30:00Z,30.2513,-88.0778,-1.72,22.1,2 
DISL,ioos:station:DISL:DISL:1,2015-10-03T02:00:00Z,30.2513,-88.0778,-1.72,22.84,2 
DISL,ioos:station:DISL:DISL:1,2015-10-03T02:30:00Z,30.2513,-88.0778,-1.72,24.21,2 
DISL,ioos:station:DISL:DISL:1,2015-10-03T03:00:00Z,30.2513,-88.0778,-1.72,22.52,2 
DISL,ioos:station:DISL:DISL:1,2015-10-03T03:30:00Z,30.2513,-88.0778,-1.72,21.69,2 
DISL,ioos:station:DISL:DISL:1,2015-10-03T04:00:00Z,30.2513,-88.0778,-1.72,21.54,2 
DISL,ioos:station:DISL:DISL:1,2015-10-03T04:30:00Z,30.2513,-88.0778,-1.72,21.73,2 
DISL,ioos:station:DISL:DISL:1,2015-10-03T05:00:00Z,30.2513,-88.0778,-1.72,21.23,2 
DISL,ioos:station:DISL:DISL:1,2015-10-03T05:30:00Z,30.2513,-88.0778,-1.72,21.08,2 
DISL,ioos:station:DISL:DISL:1,2015-10-03T06:00:00Z,30.2513,-88.0778,-1.72,21.0,2 
DISL,ioos:station:DISL:DISL:1,2015-10-03T06:30:00Z,30.2513,-88.0778,-1.72,20.95,2 
DISL,ioos:station:DISL:DISL:1,2015-10-03T07:00:00Z,30.2513,-88.0778,-1.72,20.9,2 
DISL,ioos:station:DISL:DISL:1,2015-10-03T07:30:00Z,30.2513,-88.0778,-1.72,20.88,2 
DISL,ioos:station:DISL:DISL:1,2015-10-03T08:00:00Z,30.2513,-88.0778,-1.72,21.48,2 
DISL,ioos:station:DISL:DISL:1,2015-10-03T08:30:00Z,30.2513,-88.0778,-1.72,21.2,2 
DISL,ioos:station:DISL:DISL:1,2015-10-03T09:00:00Z,30.2513,-88.0778,-1.72,20.87,2 
DISL,ioos:station:DISL:DISL:1,2015-10-03T09:30:00Z,30.2513,-88.0778,-1.72,20.85,2 
DISL,ioos:station:DISL:DISL:1,2015-10-03T10:00:00Z,30.2513,-88.0778,-1.72,20.82,2 
DISL,ioos:station:DISL:DISL:1,2015-10-03T10:30:00Z,30.2513,-88.0778,-1.72,20.81,2 
DISL,ioos:station:DISL:DISL:1,2015-10-03T11:00:00Z,30.2513,-88.0778,-1.72,20.74,2 
DISL,ioos:station:DISL:DISL:1,2015-10-03T11:30:00Z,30.2513,-88.0778,-1.72,20.72,2 
DISL,ioos:station:DISL:DISL:1,2015-10-03T12:00:00Z,30.2513,-88.0778,-1.72,20.66,2 
DISL,ioos:station:DISL:DISL:1,2015-10-03T12:30:00Z,30.2513,-88.0778,-1.72,20.61,2 
DISL,ioos:station:DISL:DISL:1,2015-10-03T13:00:00Z,30.2513,-88.0778,-1.72,20.51,2 
DISL,ioos:station:DISL:DISL:1,2015-10-03T13:30:00Z,30.2513,-88.0778,-1.72,20.46,2 
DISL,ioos:station:DISL:DISL:1,2015-10-03T14:00:00Z,30.2513,-88.0778,-1.72,20.42,2 
DISL,ioos:station:DISL:DISL:1,2015-10-03T14:30:00Z,30.2513,-88.0778,-1.72,20.4,2 
DISL,ioos:station:DISL:DISL:1,2015-10-03T15:00:00Z,30.2513,-88.0778,-1.72,20.42,2 
DISL,ioos:station:DISL:DISL:1,2015-10-03T15:30:00Z,30.2513,-88.0778,-1.72,20.23,2 
DISL,ioos:station:DISL:DISL:1,2015-10-03T16:00:00Z,30.2513,-88.0778,-1.72,20.89,2 
DISL,ioos:station:DISL:DISL:1,2015-10-03T16:30:00Z,30.2513,-88.0778,-1.72,21.23,2 
DISL,ioos:station:DISL:DISL:1,2015-10-03T17:00:00Z,30.2513,-88.0778,-1.72,21.41,2 
DISL,ioos:station:DISL:DISL:1,2015-10-03T17:30:00Z,30.2513,-88.0778,-1.72,21.82,2 
DISL,ioos:station:DISL:DISL:1,2015-10-03T18:00:00Z,30.2513,-88.0778,-1.72,22.06,2 
DISL,ioos:station:DISL:DISL:1,2015-10-03T18:30:00Z,30.2513,-88.0778,-1.72,21.83,2 
DISL,ioos:station:DISL:DISL:1,2015-10-03T19:00:00Z,30.2513,-88.0778,-1.72,21.53,2 
DISL,ioos:station:DISL:DISL:1,2015-10-03T19:30:00Z,30.2513,-88.0778,-1.72,21.34,2 
DISL,ioos:station:DISL:DISL:1,2015-10-03T20:00:00Z,30.2513,-88.0778,-1.72,21.26,2 
DISL,ioos:station:DISL:DISL:1,2015-10-03T20:30:00Z,30.2513,-88.0778,-1.72,21.18,2 
DISL,ioos:station:DISL:DISL:1,2015-10-03T21:00:00Z,30.2513,-88.0778,-1.72,20.93,2 
DISL,ioos:station:DISL:DISL:1,2015-10-03T21:30:00Z,30.2513,-88.0778,-1.72,20.93,2 
DISL,ioos:station:DISL:DISL:1,2015-10-03T22:00:00Z,30.2513,-88.0778,-1.72,21.04,2 
DISL,ioos:station:DISL:DISL:1,2015-10-03T22:30:00Z,30.2513,-88.0778,-1.72,21.23,2 
DISL,ioos:station:DISL:DISL:1,2015-10-03T23:00:00Z,30.2513,-88.0778,-1.72,21.07,2 
DISL,ioos:station:DISL:DISL:1,2015-10-03T23:30:00Z,30.2513,-88.0778,-1.72,20.89,2 
DISL,ioos:station:DISL:DISL:1,2015-10-04T00:00:00Z,30.2513,-88.0778,-1.72,20.8,2 
DISL,ioos:station:DISL:DISL:1,2015-10-04T00:30:00Z,30.2513,-88.0778,-1.72,20.75,2 
DISL,ioos:station:DISL:DISL:1,2015-10-04T01:00:00Z,30.2513,-88.0778,-1.72,20.76,2 
DISL,ioos:station:DISL:DISL:1,2015-10-04T01:30:00Z,30.2513,-88.0778,-1.72,20.71,2 
DISL,ioos:station:DISL:DISL:1,2015-10-04T02:00:00Z,30.2513,-88.0778,-1.72,21.54,2 
DISL,ioos:station:DISL:DISL:1,2015-10-04T02:30:00Z,30.2513,-88.0778,-1.72,21.44,2 
DISL,ioos:station:DISL:DISL:1,2015-10-04T03:00:00Z,30.2513,-88.0778,-1.72,20.94,2 
DISL,ioos:station:DISL:DISL:1,2015-10-04T03:30:00Z,30.2513,-88.0778,-1.72,20.69,2 
DISL,ioos:station:DISL:DISL:1,2015-10-04T04:00:00Z,30.2513,-88.0778,-1.72,20.19,2 
DISL,ioos:station:DISL:DISL:1,2015-10-04T04:30:00Z,30.2513,-88.0778,-1.72,20.1,2 
DISL,ioos:station:DISL:DISL:1,2015-10-04T05:00:00Z,30.2513,-88.0778,-1.72,20.04,2 
DISL,ioos:station:DISL:DISL:1,2015-10-04T05:30:00Z,30.2513,-88.0778,-1.72,21.48,2 
DISL,ioos:station:DISL:DISL:1,2015-10-04T06:00:00Z,30.2513,-88.0778,-1.72,21.34,2 
DISL,ioos:station:DISL:DISL:1,2015-10-04T06:30:00Z,30.2513,-88.0778,-1.72,21.24,2 
DISL,ioos:station:DISL:DISL:1,2015-10-04T07:00:00Z,30.2513,-88.0778,-1.72,21.37,2 
DISL,ioos:station:DISL:DISL:1,2015-10-04T07:30:00Z,30.2513,-88.0778,-1.72,20.81,2 
DISL,ioos:station:DISL:DISL:1,2015-10-04T08:00:00Z,30.2513,-88.0778,-1.72,20.43,2 
DISL,ioos:station:DISL:DISL:1,2015-10-04T08:30:00Z,30.2513,-88.0778,-1.72,19.55,2 
DISL,ioos:station:DISL:DISL:1,2015-10-04T09:00:00Z,30.2513,-88.0778,-1.72,19.5,2 
DISL,ioos:station:DISL:DISL:1,2015-10-04T09:30:00Z,30.2513,-88.0778,-1.72,19.51,2 
DISL,ioos:station:DISL:DISL:1,2015-10-04T10:00:00Z,30.2513,-88.0778,-1.72,19.51,2 
DISL,ioos:station:DISL:DISL:1,2015-10-04T10:30:00Z,30.2513,-88.0778,-1.72,19.51,2 
DISL,ioos:station:DISL:DISL:1,2015-10-04T11:00:00Z,30.2513,-88.0778,-1.72,19.44,2 
DISL,ioos:station:DISL:DISL:1,2015-10-04T11:30:00Z,30.2513,-88.0778,-1.72,19.42,2 
DISL,ioos:station:DISL:DISL:1,2015-10-04T12:00:00Z,30.2513,-88.0778,-1.72,19.39,2 
DISL,ioos:station:DISL:DISL:1,2015-10-04T12:30:00Z,30.2513,-88.0778,-1.72,19.34,2 
DISL,ioos:station:DISL:DISL:1,2015-10-04T13:00:00Z,30.2513,-88.0778,-1.72,19.28,2 
DISL,ioos:station:DISL:DISL:1,2015-10-04T13:30:00Z,30.2513,-88.0778,-1.72,19.24,2 
DISL,ioos:station:DISL:DISL:1,2015-10-04T14:00:00Z,30.2513,-88.0778,-1.72,19.18,2 
DISL,ioos:station:DISL:DISL:1,2015-10-04T14:30:00Z,30.2513,-88.0778,-1.72,19.14,2 
DISL,ioos:station:DISL:DISL:1,2015-10-04T15:00:00Z,30.2513,-88.0778,-1.72,19.1,2 
DISL,ioos:station:DISL:DISL:1,2015-10-04T15:30:00Z,30.2513,-88.0778,-1.72,19.09,2 
DISL,ioos:station:DISL:DISL:1,2015-10-04T16:00:00Z,30.2513,-88.0778,-1.72,19.07,2 
DISL,ioos:station:DISL:DISL:1,2015-10-04T16:30:00Z,30.2513,-88.0778,-1.72,19.08,2 
DISL,ioos:station:DISL:DISL:1,2015-10-04T17:00:00Z,30.2513,-88.0778,-1.72,19.0,2 
DISL,ioos:station:DISL:DISL:1,2015-10-04T17:30:00Z,30.2513,-88.0778,-1.72,19.11,2 
DISL,ioos:station:DISL:DISL:1,2015-10-04T18:00:00Z,30.2513,-88.0778,-1.72,19.15,2 
DISL,ioos:station:DISL:DISL:1,2015-10-04T18:30:00Z,30.2513,-88.0778,-1.72,19.27,2 
DISL,ioos:station:DISL:DISL:1,2015-10-04T19:00:00Z,30.2513,-88.0778,-1.72,19.41,2 
DISL,ioos:station:DISL:DISL:1,2015-10-04T19:30:00Z,30.2513,-88.0778,-1.72,20.01,2 
DISL,ioos:station:DISL:DISL:1,2015-10-04T20:00:00Z,30.2513,-88.0778,-1.72,20.46,2 
DISL,ioos:station:DISL:DISL:1,2015-10-04T20:30:00Z,30.2513,-88.0778,-1.72,20.86,2 
DISL,ioos:station:DISL:DISL:1,2015-10-04T21:00:00Z,30.2513,-88.0778,-1.72,20.85,2 
DISL,ioos:station:DISL:DISL:1,2015-10-04T21:30:00Z,30.2513,-88.0778,-1.72,21.12,2 
DISL,ioos:station:DISL:DISL:1,2015-10-04T22:00:00Z,30.2513,-88.0778,-1.72,21.17,2 
DISL,ioos:station:DISL:DISL:1,2015-10-04T22:30:00Z,30.2513,-88.0778,-1.72,21.1,2 
DISL,ioos:station:DISL:DISL:1,2015-10-04T23:00:00Z,30.2513,-88.0778,-1.72,21.37,2 
DISL,ioos:station:DISL:DISL:1,2015-10-04T23:30:00Z,30.2513,-88.0778,-1.72,21.54,2 
DISL,ioos:station:DISL:DISL:1,2015-10-05T00:00:00Z,30.2513,-88.0778,-1.72,21.32,2 
DISL,ioos:station:DISL:DISL:1,2015-10-05T00:30:00Z,30.2513,-88.0778,-1.72,21.05,2 
DISL,ioos:station:DISL:DISL:1,2015-10-05T01:00:00Z,30.2513,-88.0778,-1.72,20.67,2 
DISL,ioos:station:DISL:DISL:1,2015-10-05T01:30:00Z,30.2513,-88.0778,-1.72,20.22,2 
DISL,ioos:station:DISL:DISL:1,2015-10-05T02:00:00Z,30.2513,-88.0778,-1.72,20.25,2 
DISL,ioos:station:DISL:DISL:1,2015-10-05T02:30:00Z,30.2513,-88.0778,-1.72,20.41,2 
DISL,ioos:station:DISL:DISL:1,2015-10-05T03:00:00Z,30.2513,-88.0778,-1.72,20.5,2 
DISL,ioos:station:DISL:DISL:1,2015-10-05T03:30:00Z,30.2513,-88.0778,-1.72,20.46,2 
DISL,ioos:station:DISL:DISL:1,2015-10-05T04:00:00Z,30.2513,-88.0778,-1.72,20.5,2 
DISL,ioos:station:DISL:DISL:1,2015-10-05T04:30:00Z,30.2513,-88.0778,-1.72,20.47,2 
DISL,ioos:station:DISL:DISL:1,2015-10-05T05:00:00Z,30.2513,-88.0778,-1.72,20.46,2 
DISL,ioos:station:DISL:DISL:1,2015-10-05T05:30:00Z,30.2513,-88.0778,-1.72,21.1,2 
DISL,ioos:station:DISL:DISL:1,2015-10-05T06:00:00Z,30.2513,-88.0778,-1.72,21.51,2 
DISL,ioos:station:DISL:DISL:1,2015-10-05T06:30:00Z,30.2513,-88.0778,-1.72,22.24,2 
DISL,ioos:station:DISL:DISL:1,2015-10-05T07:00:00Z,30.2513,-88.0778,-1.72,21.14,2 
DISL,ioos:station:DISL:DISL:1,2015-10-05T07:30:00Z,30.2513,-88.0778,-1.72,20.56,2 
DISL,ioos:station:DISL:DISL:1,2015-10-05T08:00:00Z,30.2513,-88.0778,-1.72,20.35,2 
DISL,ioos:station:DISL:DISL:1,2015-10-05T08:30:00Z,30.2513,-88.0778,-1.72,20.25,2 
DISL,ioos:station:DISL:DISL:1,2015-10-05T09:00:00Z,30.2513,-88.0778,-1.72,20.13,2 
DISL,ioos:station:DISL:DISL:1,2015-10-05T09:30:00Z,30.2513,-88.0778,-1.72,19.8,2 
DISL,ioos:station:DISL:DISL:1,2015-10-05T10:00:00Z,30.2513,-88.0778,-1.72,19.74,2 
DISL,ioos:station:DISL:DISL:1,2015-10-05T10:30:00Z,30.2513,-88.0778,-1.72,19.64,2 
DISL,ioos:station:DISL:DISL:1,2015-10-05T11:00:00Z,30.2513,-88.0778,-1.72,19.61,2 
DISL,ioos:station:DISL:DISL:1,2015-10-05T11:30:00Z,30.2513,-88.0778,-1.72,19.47,2 
DISL,ioos:station:DISL:DISL:1,2015-10-05T12:00:00Z,30.2513,-88.0778,-1.72,19.39,2 
DISL,ioos:station:DISL:DISL:1,2015-10-05T12:30:00Z,30.2513,-88.0778,-1.72,19.39,2 
DISL,ioos:station:DISL:DISL:1,2015-10-05T13:00:00Z,30.2513,-88.0778,-1.72,19.36,2 
DISL,ioos:station:DISL:DISL:1,2015-10-05T13:30:00Z,30.2513,-88.0778,-1.72,19.46,2 
DISL,ioos:station:DISL:DISL:1,2015-10-05T14:00:00Z,30.2513,-88.0778,-1.72,19.5,2 
DISL,ioos:station:DISL:DISL:1,2015-10-05T14:30:00Z,30.2513,-88.0778,-1.72,19.52,2 
DISL,ioos:station:DISL:DISL:1,2015-10-05T15:00:00Z,30.2513,-88.0778,-1.72,19.6,2 
DISL,ioos:station:DISL:DISL:1,2015-10-05T15:30:00Z,30.2513,-88.0778,-1.72,19.66,2 
DISL,ioos:station:DISL:DISL:1,2015-10-05T16:00:00Z,30.2513,-88.0778,-1.72,19.99,2 
DISL,ioos:station:DISL:DISL:1,2015-10-05T16:30:00Z,30.2513,-88.0778,-1.72,20.41,2 
DISL,ioos:station:DISL:DISL:1,2015-10-05T17:00:00Z,30.2513,-88.0778,-1.72,20.56,2 
DISL,ioos:station:DISL:DISL:1,2015-10-05T17:30:00Z,30.2513,-88.0778,-1.72,20.96,2 
DISL,ioos:station:DISL:DISL:1,2015-10-05T18:00:00Z,30.2513,-88.0778,-1.72,20.94,2 
DISL,ioos:station:DISL:DISL:1,2015-10-05T18:30:00Z,30.2513,-88.0778,-1.72,21.2,2 
DISL,ioos:station:DISL:DISL:1,2015-10-05T19:00:00Z,30.2513,-88.0778,-1.72,21.41,2 
DISL,ioos:station:DISL:DISL:1,2015-10-05T19:30:00Z,30.2513,-88.0778,-1.72,21.57,2 
DISL,ioos:station:DISL:DISL:1,2015-10-05T20:00:00Z,30.2513,-88.0778,-1.72,21.71,2 
DISL,ioos:station:DISL:DISL:1,2015-10-05T20:30:00Z,30.2513,-88.0778,-1.72,21.83,2 
DISL,ioos:station:DISL:DISL:1,2015-10-05T21:00:00Z,30.2513,-88.0778,-1.72,21.86,2 
DISL,ioos:station:DISL:DISL:1,2015-10-05T21:30:00Z,30.2513,-88.0778,-1.72,21.9,2 
DISL,ioos:station:DISL:DISL:1,2015-10-05T22:00:00Z,30.2513,-88.0778,-1.72,21.97,2 
DISL,ioos:station:DISL:DISL:1,2015-10-05T22:30:00Z,30.2513,-88.0778,-1.72,22.02,2 
DISL,ioos:station:DISL:DISL:1,2015-10-05T23:00:00Z,30.2513,-88.0778,-1.72,22.02,2 
DISL,ioos:station:DISL:DISL:1,2015-10-05T23:30:00Z,30.2513,-88.0778,-1.72,22.0,2 
DISL,ioos:station:DISL:DISL:1,2015-10-06T00:00:00Z,30.2513,-88.0778,-1.72,22.04,2 
DISL,ioos:station:DISL:DISL:1,2015-10-06T00:30:00Z,30.2513,-88.0778,-1.72,21.99,2 
DISL,ioos:station:DISL:DISL:1,2015-10-06T01:00:00Z,30.2513,-88.0778,-1.72,22.01,2 
DISL,ioos:station:DISL:DISL:1,2015-10-06T01:30:00Z,30.2513,-88.0778,-1.72,22.05,2 
DISL,ioos:station:DISL:DISL:1,2015-10-06T02:00:00Z,30.2513,-88.0778,-1.72,22.06,2 
DISL,ioos:station:DISL:DISL:1,2015-10-06T02:30:00Z,30.2513,-88.0778,-1.72,21.96,2 
DISL,ioos:station:DISL:DISL:1,2015-10-06T03:00:00Z,30.2513,-88.0778,-1.72,21.92,2 
DISL,ioos:station:DISL:DISL:1,2015-10-06T03:30:00Z,30.2513,-88.0778,-1.72,21.77,2 
DISL,ioos:station:DISL:DISL:1,2015-10-06T04:00:00Z,30.2513,-88.0778,-1.72,21.71,2 
DISL,ioos:station:DISL:DISL:1,2015-10-06T04:30:00Z,30.2513,-88.0778,-1.72,21.82,2 
DISL,ioos:station:DISL:DISL:1,2015-10-06T05:00:00Z,30.2513,-88.0778,-1.72,21.85,2 
DISL,ioos:station:DISL:DISL:1,2015-10-06T05:30:00Z,30.2513,-88.0778,-1.72,21.83,2 
DISL,ioos:station:DISL:DISL:1,2015-10-06T06:00:00Z,30.2513,-88.0778,-1.72,21.77,2 
DISL,ioos:station:DISL:DISL:1,2015-10-06T06:30:00Z,30.2513,-88.0778,-1.72,22.27,2 
DISL,ioos:station:DISL:DISL:1,2015-10-06T07:00:00Z,30.2513,-88.0778,-1.72,22.83,2 
DISL,ioos:station:DISL:DISL:1,2015-10-06T07:30:00Z,30.2513,-88.0778,-1.72,22.94,2 
DISL,ioos:station:DISL:DISL:1,2015-10-06T08:00:00Z,30.2513,-88.0778,-1.72,22.65,2 
DISL,ioos:station:DISL:DISL:1,2015-10-06T08:30:00Z,30.2513,-88.0778,-1.72,22.52,2 
DISL,ioos:station:DISL:DISL:1,2015-10-06T09:00:00Z,30.2513,-88.0778,-1.72,22.33,2 
DISL,ioos:station:DISL:DISL:1,2015-10-06T09:30:00Z,30.2513,-88.0778,-1.72,21.84,2 
DISL,ioos:station:DISL:DISL:1,2015-10-06T10:00:00Z,30.2513,-88.0778,-1.72,21.75,2 
DISL,ioos:station:DISL:DISL:1,2015-10-06T10:30:00Z,30.2513,-88.0778,-1.72,21.7,2 
DISL,ioos:station:DISL:DISL:1,2015-10-06T11:00:00Z,30.2513,-88.0778,-1.72,21.66,2 
DISL,ioos:station:DISL:DISL:1,2015-10-06T11:30:00Z,30.2513,-88.0778,-1.72,21.62,2 
DISL,ioos:station:DISL:DISL:1,2015-10-06T12:00:00Z,30.2513,-88.0778,-1.72,21.45,2 
DISL,ioos:station:DISL:DISL:1,2015-10-06T12:30:00Z,30.2513,-88.0778,-1.72,21.37,2 
DISL,ioos:station:DISL:DISL:1,2015-10-06T13:00:00Z,30.2513,-88.0778,-1.72,21.4,2 
DISL,ioos:station:DISL:DISL:1,2015-10-06T13:30:00Z,30.2513,-88.0778,-1.72,21.42,2 
DISL,ioos:station:DISL:DISL:1,2015-10-06T14:00:00Z,30.2513,-88.0778,-1.72,21.41,2 
DISL,ioos:station:DISL:DISL:1,2015-10-06T14:30:00Z,30.2513,-88.0778,-1.72,21.4,2 
DISL,ioos:station:DISL:DISL:1,2015-10-06T15:00:00Z,30.2513,-88.0778,-1.72,21.45,2 
DISL,ioos:station:DISL:DISL:1,2015-10-06T15:30:00Z,30.2513,-88.0778,-1.72,21.47,2 
DISL,ioos:station:DISL:DISL:1,2015-10-06T16:00:00Z,30.2513,-88.0778,-1.72,21.52,2 
DISL,ioos:station:DISL:DISL:1,2015-10-06T16:30:00Z,30.2513,-88.0778,-1.72,21.64,2 
DISL,ioos:station:DISL:DISL:1,2015-10-06T17:00:00Z,30.2513,-88.0778,-1.72,21.76,2 
DISL,ioos:station:DISL:DISL:1,2015-10-06T17:30:00Z,30.2513,-88.0778,-1.72,21.95,2 
DISL,ioos:station:DISL:DISL:1,2015-10-06T18:00:00Z,30.2513,-88.0778,-1.72,22.09,2 
DISL,ioos:station:DISL:DISL:1,2015-10-06T18:30:00Z,30.2513,-88.0778,-1.72,22.04,2 
DISL,ioos:station:DISL:DISL:1,2015-10-06T19:00:00Z,30.2513,-88.0778,-1.72,22.07,2 
DISL,ioos:station:DISL:DISL:1,2015-10-06T19:30:00Z,30.2513,-88.0778,-1.72,22.16,2 
DISL,ioos:station:DISL:DISL:1,2015-10-06T20:00:00Z,30.2513,-88.0778,-1.72,22.42,2 
DISL,ioos:station:DISL:DISL:1,2015-10-06T20:30:00Z,30.2513,-88.0778,-1.72,22.74,2 
DISL,ioos:station:DISL:DISL:1,2015-10-06T21:00:00Z,30.2513,-88.0778,-1.72,23.06,2 
DISL,ioos:station:DISL:DISL:1,2015-10-06T21:30:00Z,30.2513,-88.0778,-1.72,22.93,2 
DISL,ioos:station:DISL:DISL:1,2015-10-06T22:00:00Z,30.2513,-88.0778,-1.72,22.81,2 
DISL,ioos:station:DISL:DISL:1,2015-10-06T22:30:00Z,30.2513,-88.0778,-1.72,22.62,2 
DISL,ioos:station:DISL:DISL:1,2015-10-06T23:00:00Z,30.2513,-88.0778,-1.72,22.93,2 
DISL,ioos:station:DISL:DISL:1,2015-10-06T23:30:00Z,30.2513,-88.0778,-1.72,22.86,2 